EW0435 Weather Reports


Display with metric or nautical units.
time (UTC)temp
F
wind
direction
speed
MPH
gust
MPH
rain 1hr
in
rain 24hr
in
rain mn
in
humidity
%
barometer
mb
20260504223504 73 338 0.0 3.0 0.00 0.00 0.00 38 1014.0
20260504222504 73 322 0.0 2.0 0.00 0.00 0.00 38 1014.0
20260504222004 73 336 0.0 3.0 0.00 0.00 0.00 40 1014.1
20260504221504 72 350 0.0 5.0 0.00 0.00 0.00 40 1014.1
20260504221004 72 313 0.0 7.0 0.00 0.00 0.00 40 1014.1
20260504220503 72 324 1.0 3.0 0.00 0.00 0.00 39 1014.1
20260504220004 71 322 1.0 8.0 0.00 0.00 0.00 40 1014.1
20260504215504 71 318 1.0 10.0 0.00 0.00 0.00 37 1014.2
20260504215004 71 311 1.0 10.0 0.00 0.00 0.00 36 1014.3
20260504214004 73 313 1.0 8.0 0.00 0.00 0.00 35 1014.4
20260504213503 72 322 1.0 3.0 0.00 0.00 0.00 34 1014.4
20260504213004 73 321 1.0 3.0 0.00 0.00 0.00 37 1014.4
20260504212504 72 327 1.0 8.0 0.00 0.00 0.00 37 1014.4
20260504212004 72 313 2.0 9.0 0.00 0.00 0.00 37 1014.4
20260504211004 72 317 0.0 2.0 0.00 0.00 0.00 39 1014.5
20260504210503 73 314 1.0 6.0 0.00 0.00 0.00 37 1014.6
20260504205504 73 328 0.0 3.0 0.00 0.00 0.00 36 1014.7
20260504204504 73 310 0.0 3.0 0.00 0.00 0.00 38 1014.7
20260504204005 73 346 0.0 5.0 0.00 0.00 0.00 35 1014.6
20260504203504 73 356 0.0 2.0 0.00 0.00 0.00 36 1014.6
20260504202504 72 325 1.0 3.0 0.00 0.00 0.00 36 1014.7
20260504202004 72 349 1.0 6.0 0.00 0.00 0.00 36 1014.7
20260504201504 72 339 0.0 3.0 0.00 0.00 0.00 34 1014.7
20260504201004 72 333 0.0 2.0 0.00 0.00 0.00 35 1014.7
20260504200504 72 310 1.0 3.0 0.00 0.00 0.00 33 1014.7
20260504200004 72 308 1.0 3.0 0.00 0.00 0.00 35 1014.6
20260504195503 72 322 0.0 7.0 0.00 0.00 0.00 34 1014.6
20260504195004 73 315 0.0 3.0 0.00 0.00 0.00 34 1014.6
20260504194504 73 328 0.0 3.0 0.00 0.00 0.00 36 1014.6
20260504194004 72 336 1.0 3.0 0.00 0.00 0.00 35 1014.7
20260504193004 70 304 1.0 6.0 0.00 0.00 0.00 34 1014.7
20260504192504 71 317 1.0 5.0 0.00 0.00 0.00 36 1014.7
20260504192005 70 320 0.0 8.0 0.00 0.00 0.00 38 1014.7
20260504191004 70 305 1.0 3.0 0.00 0.00 0.00 35 1014.8
20260504190004 70 335 0.0 3.0 0.00 0.00 0.00 39 1014.8
20260504185504 70 295 1.0 9.0 0.00 0.00 0.00 36 1014.8
20260504185004 71 319 1.0 5.0 0.00 0.00 0.00 34 1014.9
20260504184504 71 333 0.0 2.0 0.00 0.00 0.00 36 1014.9
20260504184004 71 333 0.0 1.0 0.00 0.00 0.00 36 1014.9
20260504183504 71 306 0.0 2.0 0.00 0.00 0.00 36 1014.9
20260504183003 71 312 0.0 2.0 0.00 0.00 0.00 36 1014.9
20260504182504 71 346 0.0 1.0 0.00 0.00 0.00 36 1014.8
20260504182004 71 324 0.0 1.0 0.00 0.00 0.00 37 1014.8
20260504181504 71 330 0.0 1.0 0.00 0.00 0.00 36 1014.8
20260504181004 71 311 0.0 2.0 0.00 0.00 0.00 35 1014.8
20260504175004 71 323 0.0 1.0 0.00 0.00 0.00 37 1014.8
20260504174504 70 351 0.0 3.0 0.00 0.00 0.00 38 1014.8
20260504174004 70 351 0.0 2.0 0.00 0.00 0.00 36 1014.8
20260504173004 70 345 0.0 1.0 0.00 0.00 0.00 36 1014.8
20260504172004 70 338 0.0 1.0 0.00 0.00 0.00 35 1014.8
20260504171504 70 347 0.0 1.0 0.00 0.00 0.00 36 1014.8
20260504171004 70 351 0.0 3.0 0.00 0.00 0.00 35 1014.8
20260504170504 69 323 0.0 1.0 0.00 0.00 0.00 38 1014.8
20260504150504 63 277 0.0 0.0 0.00 0.00 0.00 50 1015.0
20260504140504 56 284 0.0 0.0 0.00 0.00 0.00 57 1014.8
20260504130504 55 283 0.0 0.0 0.00 0.00 0.00 46 1014.8
20260504110504 53 297 0.0 0.0 0.00 0.00 0.00 45 1015.0
20260504100504 56 277 0.0 0.0 0.00 0.00 0.00 42 1015.0
20260504082004 56 271 0.0 0.0 0.00 0.00 0.00 45 1015.4
20260504081504 56 271 0.0 0.0 0.00 0.00 0.00 45 1015.4
20260504081004 56 271 0.0 0.0 0.00 0.00 0.00 45 1015.5
20260504080504 56 271 0.0 0.0 0.00 0.00 0.00 45 1015.5
20260504050504 57 285 0.0 0.0 0.00 0.00 0.00 43 1016.2
20260504050004 58 286 0.0 0.0 0.00 0.00 0.00 44 1016.2
20260504045504 58 281 0.0 0.0 0.00 0.00 0.00 42 1016.2
20260504045004 58 281 0.0 0.0 0.00 0.00 0.00 42 1016.2
20260504044504 58 296 0.0 0.0 0.00 0.00 0.00 42 1016.2
20260504044003 58 329 0.0 0.0 0.00 0.00 0.00 43 1016.2
20260504043504 58 329 0.0 0.0 0.00 0.00 0.00 42 1016.3
20260504043004 59 329 0.0 0.0 0.00 0.00 0.00 40 1016.3
20260504042503 59 329 0.0 0.0 0.00 0.00 0.00 41 1016.2
20260504042004 59 330 0.0 0.0 0.00 0.00 0.00 40 1016.3
20260504041504 59 330 0.0 0.0 0.00 0.00 0.00 40 1016.3
20260504041004 60 330 0.0 0.0 0.00 0.00 0.00 40 1016.3
20260504040503 60 330 0.0 0.0 0.00 0.00 0.00 39 1016.3
20260504040004 60 330 0.0 0.0 0.00 0.00 0.00 38 1016.2
20260504035503 60 330 0.0 0.0 0.00 0.00 0.00 39 1016.2
20260504035004 60 330 0.0 0.0 0.00 0.00 0.00 39 1016.2
20260504034505 60 330 0.0 0.0 0.00 0.00 0.00 40 1016.2
20260504034004 61 330 0.0 0.0 0.00 0.00 0.00 40 1016.1
20260504032505 62 330 0.0 0.0 0.00 0.00 0.00 38 1016.1
20260504032004 62 330 0.0 0.0 0.00 0.00 0.00 38 1016.1
20260504031504 62 330 0.0 0.0 0.00 0.00 0.00 38 1016.0
20260504031004 62 330 0.0 0.0 0.00 0.00 0.00 38 1016.0
20260504030504 63 330 0.0 0.0 0.00 0.00 0.00 37 1016.0
20260504030005 64 330 0.0 0.0 0.00 0.00 0.00 36 1015.9
20260504025504 64 330 0.0 0.0 0.00 0.00 0.00 35 1015.9
20260504025004 65 330 0.0 0.0 0.00 0.00 0.00 35 1015.9
20260504024504 65 330 0.0 0.0 0.00 0.00 0.00 36 1015.9
20260504023504 66 330 0.0 0.0 0.00 0.00 0.00 36 1015.9
20260504021504 67 332 0.0 0.0 0.00 0.00 0.00 35 1016.0
20260504021004 68 332 0.0 0.0 0.00 0.00 0.00 36 1016.1
20260504020504 68 333 0.0 0.0 0.00 0.00 0.00 36 1016.1
20260504020004 68 328 0.0 0.0 0.00 0.00 0.00 35 1016.1
20260504014504 69 335 0.0 0.0 0.00 0.00 0.00 32 1016.2
20260504014004 70 341 0.0 0.0 0.00 0.00 0.00 31 1016.3
20260504013504 70 336 0.0 3.0 0.00 0.00 0.00 32 1016.3
20260504013005 70 333 0.0 5.0 0.00 0.00 0.00 31 1016.4
20260504012004 71 343 0.0 1.0 0.00 0.00 0.00 33 1016.4
20260504011504 71 342 0.0 0.0 0.00 0.00 0.00 35 1016.5
20260504011004 71 334 0.0 1.0 0.00 0.00 0.00 34 1016.5
20260504010004 72 338 0.0 3.0 0.00 0.00 0.00 35 1016.6
20260504005504 72 335 0.0 1.0 0.00 0.00 0.00 36 1016.6
20260504005005 71 344 0.0 3.0 0.00 0.00 0.00 36 1016.7
20260504004504 72 309 1.0 3.0 0.00 0.00 0.00 33 1016.7
20260504003504 72 332 0.0 8.0 0.00 0.00 0.00 34 1016.8
20260504002504 72 309 1.0 3.0 0.00 0.00 0.00 33 1016.8
20260504002004 72 312 1.0 3.0 0.00 0.00 0.00 32 1016.9
20260504001504 72 317 1.0 5.0 0.00 0.00 0.00 31 1016.9
20260504001004 72 326 0.0 2.0 0.00 0.00 0.00 31 1016.9
20260504000504 72 315 0.0 3.0 0.00 0.00 0.00 30 1017.0
20260504000004 73 314 0.0 3.0 0.00 0.00 0.00 31 1017.0
20260503235504 72 302 1.0 5.0 0.00 0.00 0.00 31 1017.0
20260503235004 73 315 2.0 8.0 0.00 0.00 0.00 31 1017.1
20260503234504 73 323 0.0 2.0 0.00 0.00 0.00 32 1017.0
20260503234004 73 314 0.0 5.0 0.00 0.00 0.00 33 1017.0
20260503233504 74 310 1.0 7.0 0.00 0.00 0.00 32 1017.1
20260503233004 74 337 0.0 2.0 0.00 0.00 0.00 33 1017.1
20260503232504 74 340 0.0 3.0 0.00 0.00 0.00 30 1017.2
20260503231504 74 335 0.0 3.0 0.00 0.00 0.00 31 1017.2
20260503231004 74 317 0.0 5.0 0.00 0.00 0.00 34 1017.3
20260503230504 73 330 1.0 7.0 0.00 0.00 0.00 33 1017.3
20260503230004 74 319 1.0 3.0 0.00 0.00 0.00 31 1017.3
20260503224504 75 317 1.0 3.0 0.00 0.00 0.00 32 1017.6